Time,TemperatureF,DewpointF,PressureIn,WindDirection,WindDirectionDegrees,WindSpeedMPH,WindSpeedGustMPH,Humidity,HourlyPrecipIn,Conditions,Clouds,dailyrainin,SoftwareType,DateUTC
2013-08-25 00:02:00,-999.0,-99.9,30.23,East,96,0.0,0.0,-999,-99.99,,,-99.99,,2013-08-25 04:02:00,
2013-08-25 00:14:00,66.0,62.0,30.23,East,96,0.0,0.0,86,0.00,,,0.00,,2013-08-25 04:14:00,
2013-08-25 00:25:00,66.0,62.0,30.23,East,88,0.0,1.0,87,0.00,,,0.00,,2013-08-25 04:25:00,
2013-08-25 00:54:00,66.0,62.0,30.23,East,87,0.0,0.0,87,0.00,,,0.00,,2013-08-25 04:54:00,
2013-08-25 01:12:00,66.0,62.0,30.23,East,87,0.0,0.0,88,0.00,,,0.00,,2013-08-25 05:12:00,
2013-08-25 01:23:00,65.0,62.0,30.23,East,87,0.0,0.0,89,0.00,,,0.00,,2013-08-25 05:23:00,
2013-08-25 01:52:00,65.0,62.0,30.23,East,87,0.0,0.0,90,0.00,,,0.00,,2013-08-25 05:52:00,
2013-08-25 02:12:00,65.0,62.0,30.23,East,87,0.0,0.0,91,0.00,,,0.00,,2013-08-25 06:12:00,
2013-08-25 02:22:00,64.0,61.0,30.23,East,87,0.0,0.0,91,0.00,,,0.00,,2013-08-25 06:22:00,
2013-08-25 02:52:00,64.0,62.0,30.23,East,88,0.0,0.0,92,0.00,,,0.00,,2013-08-25 06:52:00,
2013-08-25 03:12:00,64.0,62.0,30.22,East,87,0.0,0.0,93,0.00,,,0.00,,2013-08-25 07:12:00,
2013-08-25 03:22:00,64.0,62.0,30.22,East,87,0.0,0.0,94,0.00,,,0.00,,2013-08-25 07:22:00,
2013-08-25 03:52:00,63.0,61.0,30.22,East,87,0.0,0.0,94,0.00,,,0.00,,2013-08-25 07:52:00,
2013-08-25 04:12:00,63.0,62.0,30.22,East,88,0.0,0.0,95,0.00,,,0.00,,2013-08-25 08:12:00,
2013-08-25 04:21:00,63.0,62.0,30.22,East,87,0.0,0.0,95,0.00,,,0.00,,2013-08-25 08:21:00,
2013-08-25 04:52:00,63.0,62.0,30.22,East,88,0.0,0.0,96,0.00,,,0.00,,2013-08-25 08:52:00,
2013-08-25 05:11:00,63.0,62.0,30.23,East,87,0.0,0.0,96,0.00,,,0.00,,2013-08-25 09:11:00,
2013-08-25 05:22:00,63.0,62.0,30.23,East,87,0.0,0.0,96,0.00,,,0.00,,2013-08-25 09:22:00,
2013-08-25 05:55:00,62.0,61.0,30.23,East,87,0.0,0.0,96,0.00,,,0.00,,2013-08-25 09:55:00,
2013-08-25 06:23:00,62.0,61.0,30.23,East,87,0.0,0.0,96,0.00,,,0.00,,2013-08-25 10:23:00,
2013-08-25 06:53:00,62.0,61.0,30.24,East,87,0.0,0.0,96,0.00,,,0.00,,2013-08-25 10:53:00,
2013-08-25 07:12:00,62.0,61.0,30.25,East,87,0.0,0.0,97,0.00,,,0.00,,2013-08-25 11:12:00,
2013-08-25 07:22:00,62.0,61.0,30.26,East,87,0.0,0.0,97,0.00,,,0.00,,2013-08-25 11:22:00,
2013-08-25 07:52:00,62.0,61.0,30.27,East,87,0.0,0.0,98,0.00,,,0.00,,2013-08-25 11:52:00,
2013-08-25 08:12:00,63.0,62.0,30.28,East,79,0.0,0.0,98,0.00,,,0.00,,2013-08-25 12:12:00,
2013-08-25 08:22:00,63.0,62.0,30.29,North,360,0.0,0.0,97,0.00,,,0.00,,2013-08-25 12:22:00,
2013-08-25 08:52:00,65.0,63.0,30.29,ENE,58,0.0,1.0,93,0.00,,,0.00,,2013-08-25 12:52:00,
2013-08-25 09:22:00,68.0,63.0,30.30,East,79,0.0,1.0,84,0.00,,,0.00,,2013-08-25 13:22:00,
2013-08-25 09:52:00,71.0,62.0,30.31,North,5,0.0,3.0,74,0.00,,,0.00,,2013-08-25 13:52:00,
2013-08-25 10:26:00,72.0,61.0,30.31,NE,37,0.0,5.0,69,0.00,,,0.00,,2013-08-25 14:26:00,
2013-08-25 10:52:00,74.0,62.0,30.32,ENE,61,2.0,12.0,66,0.00,,,0.00,,2013-08-25 14:52:00,
2013-08-25 11:23:00,75.0,62.0,30.31,ENE,60,1.0,6.0,65,0.00,,,0.00,,2013-08-25 15:23:00,
2013-08-25 11:55:00,75.0,62.0,30.31,North,5,0.0,7.0,63,0.00,,,0.00,,2013-08-25 15:55:00,
2013-08-25 12:24:00,74.0,60.0,30.30,East,93,0.0,5.0,62,0.00,,,0.00,,2013-08-25 16:24:00,
2013-08-25 12:54:00,77.0,61.0,30.29,East,89,1.0,12.0,57,0.00,,,0.00,,2013-08-25 16:54:00,
2013-08-25 13:23:00,78.0,62.0,30.29,NNW,334,2.0,6.0,58,0.00,,,0.00,,2013-08-25 17:23:00,
2013-08-25 13:53:00,78.0,59.0,30.28,NNW,348,2.0,10.0,53,0.00,,,0.00,,2013-08-25 17:53:00,
2013-08-25 14:12:00,79.0,57.0,30.28,ESE,111,1.0,15.0,47,0.00,,,0.00,,2013-08-25 18:12:00,
2013-08-25 14:22:00,79.0,58.0,30.27,SSW,206,1.0,6.0,48,0.00,,,0.00,,2013-08-25 18:22:00,
2013-08-25 14:52:00,79.0,56.0,30.27,ENE,78,3.0,10.0,46,0.00,,,0.00,,2013-08-25 18:52:00,
2013-08-25 15:12:00,79.0,59.0,30.26,NW,322,0.0,9.0,51,0.00,,,0.00,,2013-08-25 19:12:00,
2013-08-25 15:22:00,79.0,58.0,30.25,NE,49,0.0,6.0,48,0.00,,,0.00,,2013-08-25 19:22:00,
2013-08-25 15:53:00,79.0,58.0,30.24,NE,46,0.0,6.0,48,0.00,,,0.00,,2013-08-25 19:53:00,
2013-08-25 16:12:00,80.0,57.0,30.23,SSE,164,0.0,3.0,46,0.00,,,0.00,,2013-08-25 20:12:00,
2013-08-25 16:23:00,80.0,59.0,30.23,ENE,74,0.0,7.0,48,0.00,,,0.00,,2013-08-25 20:23:00,
2013-08-25 16:53:00,79.0,54.0,30.23,East,93,2.0,11.0,42,0.00,,,0.00,,2013-08-25 20:53:00,
2013-08-25 17:22:00,79.0,56.0,30.23,ENE,60,2.0,9.0,46,0.00,,,0.00,,2013-08-25 21:22:00,
2013-08-25 17:55:00,79.0,57.0,30.23,WSW,239,1.0,9.0,47,0.00,,,0.00,,2013-08-25 21:55:00,
2013-08-25 18:24:00,77.0,56.0,30.23,ENE,77,0.0,5.0,48,0.00,,,0.00,,2013-08-25 22:24:00,
2013-08-25 18:53:00,76.0,57.0,30.23,East,81,0.0,3.0,52,0.00,,,0.00,,2013-08-25 22:53:00,
2013-08-25 19:12:00,76.0,57.0,30.23,East,80,0.0,1.0,51,0.00,,,0.00,,2013-08-25 23:12:00,
2013-08-25 19:23:00,75.0,57.0,30.23,East,88,0.0,1.0,54,0.00,,,0.00,,2013-08-25 23:23:00,
2013-08-25 19:53:00,72.0,56.0,30.23,ENE,60,0.0,0.0,58,0.00,,,0.00,,2013-08-25 23:53:00,
2013-08-25 20:11:00,71.0,57.0,30.22,ENE,60,0.0,0.0,61,0.00,,,0.00,,2013-08-26 00:11:00,
2013-08-25 20:22:00,70.0,58.0,30.23,ENE,60,0.0,0.0,65,0.00,,,0.00,,2013-08-26 00:22:00,
2013-08-25 20:42:00,68.0,57.0,30.23,ENE,60,0.0,0.0,69,0.00,,,0.00,,2013-08-26 00:42:00,
2013-08-25 20:52:00,68.0,59.0,30.23,ENE,60,0.0,0.0,72,0.00,,,0.00,,2013-08-26 00:52:00,
2013-08-25 21:11:00,67.0,59.0,30.22,ENE,60,0.0,0.0,75,0.00,,,0.00,,2013-08-26 01:11:00,
2013-08-25 21:22:00,66.0,59.0,30.23,ENE,60,0.0,0.0,79,0.00,,,0.00,,2013-08-26 01:22:00,
2013-08-25 21:42:00,65.0,59.0,30.24,ENE,60,0.0,0.0,81,0.00,,,0.00,,2013-08-26 01:42:00,
2013-08-25 21:52:00,65.0,60.0,30.24,ENE,60,0.0,0.0,83,0.00,,,0.00,,2013-08-26 01:52:00,
2013-08-25 22:22:00,64.0,59.0,30.24,ENE,60,0.0,0.0,85,0.00,,,0.00,,2013-08-26 02:22:00,
2013-08-25 22:42:00,63.0,59.0,30.23,ENE,60,0.0,0.0,86,0.00,,,0.00,,2013-08-26 02:42:00,
2013-08-25 22:52:00,63.0,59.0,30.24,ENE,60,0.0,0.0,88,0.00,,,0.00,,2013-08-26 02:52:00,
2013-08-25 23:11:00,63.0,59.0,30.24,ENE,60,0.0,0.0,88,0.00,,,0.00,,2013-08-26 03:11:00,
2013-08-25 23:22:00,62.0,59.0,30.25,ENE,60,0.0,0.0,89,0.00,,,0.00,,2013-08-26 03:22:00,
2013-08-25 23:56:00,62.0,59.0,30.24,ENE,60,0.0,0.0,90,0.00,,,0.00,,2013-08-26 03:56:00,